Location: Hamayl? Da??
(36.7028°N, 30.1716°E)
Time: 12:53:22
(UTC+00:00)

Cosmos 2058 Rocket - Pass Details

Date: 04 August 2024
Orbit: 608 x 634 km, 82.5° (Epoch: 11 September)

Event Time Altitude Azimuth Distance (km) Brightness Sun altitude
Rises 18:06:39 0° 5° (N) 2,889 6.9 -12.3°
Reaches altitude 10° 18:09:08 10° 17° (NNE) 1,984 5.9 -12.7°
Maximum altitude 18:12:56 28° 77° (ENE) 1,164 4.1 -13.3°
Enters shadow 18:14:43 21° 115° (ESE) 1,390 4.2 -13.6°
